Location: Alma
(38.7220°N, 88.9090°W)
Time: 22:00:34
(UTC-06:00)

Vanguard 2 - Pass Details

Date: 18 November 2019
Orbit: 553 x 2938 km, 32.9° (Epoch: 10 December)

Event Time Altitude Azimuth Distance (km) Brightness Sun altitude
Rises 08:07:26 0° 235° (SW) 5,630 11.8 13.5°
Reaches altitude 10° 08:11:59 10° 230° (SW) 4,225 11.2 14.2°
Maximum altitude 08:21:27 39° 167° (SSE) 1,828 10.4 15.6°
Drops below altitude 10° 08:27:24 10° 99° (E) 2,660 11.4 16.5°
Sets 08:29:39 0° 91° (E) 3,381 11.6 16.8°
